www.pogodaiklimat.ru
ПОГОДА в Докшанах
Время
(UTC), дата
01 29.11
02 29.11
03 29.11
04 29.11
05 29.11
06 29.11
07 29.11
08 29.11
09 29.11
10 29.11
11 29.11
12 29.11
13 29.11
14 29.11
15 29.11
16 29.11
17 29.11
18 29.11
19 29.11
20 29.11
21 29.11
22 29.11
23 29.11
00 30.11
01 30.11
02 30.11
03 30.11
04 30.11
05 30.11
06 30.11
07 30.11
08 30.11
09 30.11
10 30.11
11 30.11
12 30.11
13 30.11
14 30.11
15 30.11
16 30.11
17 30.11
18 30.11
19 30.11
20 30.11
21 30.11
22 30.11
23 30.11
00 1.12
01 1.12
02 1.12
03 1.12
04 1.12
05 1.12
06 1.12
07 1.12
08 1.12
09 1.12
10 1.12
11 1.12
12 1.12
13 1.12
14 1.12
15 1.12
16 1.12
17 1.12
18 1.12
19 1.12
20 1.12
21 1.12
22 1.12
23 1.12
00 2.12
01 2.12
02 2.12
03 2.12
04 2.12
05 2.12
06 2.12
07 2.12
08 2.12
09 2.12
10 2.12
11 2.12
12 2.12
13 2.12
14 2.12
15 2.12
16 2.12
17 2.12
18 2.12
19 2.12
20 2.12
21 2.12
22 2.12
23 2.12
00 3.12
01 3.12
02 3.12
03 3.12
04 3.12
05 3.12
06 3.12
07 3.12
08 3.12
09 3.12
10 3.12
11 3.12
12 3.12
13 3.12
14 3.12
15 3.12
16 3.12
17 3.12
18 3.12
19 3.12
20 3.12
21 3.12
22 3.12
23 3.12
00 4.12
01 4.12
02 4.12
03 4.12
04 4.12
05 4.12
06 4.12
07 4.12
08 4.12
09 4.12
10 4.12
11 4.12
12 4.12
13 4.12
14 4.12
15 4.12
16 4.12
17 4.12
18 4.12
19 4.12
20 4.12
21 4.12
22 4.12
23 4.12
00 5.12
01 5.12
02 5.12
03 5.12
04 5.12
05 5.12
06 5.12
07 5.12
08 5.12
09 5.12
10 5.12
11 5.12
12 5.12
13 5.12
14 5.12
15 5.12
16 5.12
17 5.12
18 5.12
19 5.12
20 5.12
21 5.12
22 5.12
23 5.12
00 6.12
01 6.12
02 6.12
Ветер
(напр.,м/с)
Видим. Явления Облачность Т
(С)
Тd
(С)
f
(%)
Тe
(С)
Тes
(С)
Комфортность P
(гПа)
Po
(гПа)
Тmin
(С)
Tmax
(С)
R
(мм)
R24
(мм)
S
(см)
ЮЗ 5 35 км в посл. час дождь {ливн. осадки} н/о +9.6 +5.4 75 +6 +6 тепло 998.1 979.1
ЮЗ 5 35 км н/о +9.7 +5.4 75 +7 +7 тепло 998.3 979.3
ЮЗ 4 35 км слаб. ливневой дождь н/о +9.7 +5.5 75 +7 +7 тепло 998.5 979.5
З 6 35 км слаб. ливневой дождь н/о +9.6 +5.6 76 +6 +6 тепло 998.9 979.8
ЮЗ 6 35 км слаб. дождь н/о +9.1 +6.2 82 +5 +5 тепло 999.4 980.3
ЮЗ 5 35 км слаб. дождь 10/10 1140 м
[Sc]
+8.9 +6.2 83 +5 +5 тепло 999.7 980.6 +8.6 0.1 0.1
З 5 40 км слаб. дождь 10/10 900 м
[Sc]
+8.8 +5.7 81 +5 +5 тепло 1000.7 981.6
З 4 40 км в посл. час дождь 10/10 1000 м
[Cu Sc]
+8.5 +6.1 85 +5 +5 тепло 1001.6 982.4
СЗ 4 40 км в посл. час дождь 10/10 700 м
[Cu Sc]
+8.1 +4.1 76 +5 +5 тепло 1002.9 983.7
СЗ 6
{11}
40 км слаб. ливневой дождь 8/8 1320 м
[Cu med, cong]
+7.3 +1.8 68 +3 +3 по сезону 1004.4 985.1
З 7
{11}
40 км 6/3 1080 м
[Cu med, cong Ac lent Ci fib]
+7.7 -1.7 51 +4 +4 по сезону 1004.9 985.6
СЗ 6
{11}
40 км {ливн. осадки, дождь} 6/1 1500 м
[Cu med, cong Ac lent Ci fib]
+7.7 -0.7 55 +4 +4 по сезону 1005.4 986.1 0.1 0.7
З 6
{12}
40 км 6/4 1320 м
[Cu med, cong Ci fib]
+7.3 -0.9 56 +3 +4 по сезону 1006.1 986.7
З 6 40 км 9/8 1500 м
[Cu med, cong Ci fib]
+7.0 -0.6 58 +3 +3 по сезону 1006.9 987.5
З 6-11
{13}
40 км 8/8 1500 м
[Cu med, cong]
+6.4 -1.6 57 +2 +2 по сезону 1008.3 988.8 0.7
З 5 40 км 6/6 1500 м
[Cu med, cong]
+6.0 -1.6 58 +2 +2 по сезону 1009.0 989.5
З 4 40 км 8/8 1320 м
[Sc]
+5.4 -0.5 66 +2 +2 по сезону 1010.2 990.6
З 5
{13}
40 км 6/6 1300 м
[Sc]
+5.8 -0.9 62 +2 +2 по сезону 1010.8 991.2 +9.0 0.1 0.7
З 6 40 км 8/8 1170 м
[Sc]
+5.5 -0.4 66 +1 +1 по сезону 1011.7 992.1
СЗ 5-10
{12}
40 км 9/9 1020 м
[Sc]
+4.7 -0.7 68 0 0 по сезону 1013.0 993.3
СЗ 6
{12}
35 км {дымка} н/о +4.6 -1.7 64 -0 -0 по сезону 1014.0 994.3 0.7
СЗ 6
{11}
35 км н/о +3.0 -2.9 65 -2 -2 по сезону 1015.2 995.3
СЗ 4 35 км н/о +2.1 -3.4 67 -3 -3 прохладно 1016.3 996.4
СЗ 2
{12}
35 км {дымка} н/о +0.9 -3.6 72 -2 -2 по сезону 1017.6 997.5 0.1 0.6
З 3 35 км н/о +0.5 -3.5 75 -4 -4 прохладно 1018.5 998.4
З 2 35 км н/о +0.5 -3.9 72 -3 -3 прохладно 1019.3 999.2
нст 2 35 км {дымка} н/о -0.2 -3.8 77 -4 -4 прохладно 1020.0 999.8 0.6
Ю 2 35 км н/о -1.6 -3.2 89 -6 -6 холодно 1020.4 1000.1
Ю 1 35 км н/о -0.6 -2.5 87 -3 -3 прохладно 1020.9 1000.7
нст 2 35 км слаб. крупа 9/9 1500 м
[Cu med, cong]
+0.4 -2.2 83 -3 -3 прохладно 1021.5 1001.3 -2.4 0.1 0.2 <0.5
ЮЗ 3 45 км в посл. час крупа {ливн. осадки} 9/9 1500 м
[Cu med, cong]
+1.2 -1.3 83 -3 -3 прохладно 1021.7 1001.6
З 2 45 км 6/5 1000 м
[Cu med, cong Ac trans]
+1.5 -0.9 84 -2 -2 по сезону 1022.4 1002.3
нст 2 45 км {ливн. осадки} 1/1 1500 м
[Cu med, cong]
+2.6 -0.5 80 +1 по сезону 1022.9 1002.9 0.5
45 км 3/1 1050 м
[Cu med, cong Ac trans]
+4.2 +0.2 75 1023.1 1003.2
З 3 35 км 4/4 1200 м
[Cu med, cong]
+6.4 +1.3 70 +4 +5 по сезону 1022.7 1003.0
З 4 45 км {ливн. осадки} 3/3 1050 м
[Cu med, cong]
+5.7 -0.5 64 +2 +3 по сезону 1022.6 1002.8 0.0 0.5
З 4 40 км 6/6 1320 м
[Cu med, cong]
+5.6 -2.2 57 +2 +2 по сезону 1022.8 1003.0
СЗ 3 35 км в посл. час ливневой дождь 8/8 800 м
[Cu med, cong]
+4.2 -0.4 72 +1 +1 по сезону 1023.5 1003.6
З 2 40 км {ливн. осадки} 9/9 1050 м
[Cu Sc]
+3.9 +0.6 79 +1 +1 по сезону 1024.0 1004.0 0.6
35 км 9/9 960 м
[Cu Sc]
+3.5 +0.3 80 1024.2 1004.2
З 2 35 км в посл. час ливневой дождь 6/6 1320 м
[Cu med, cong]
+3.4 +0.3 80 +1 +1 по сезону 1024.4 1004.4
З 1 35 км {ливн. осадки} 6/6 1500 м
[Cu med, cong]
+2.6 0.0 83 +1 +1 по сезону 1024.6 1004.5 +6.4 0.0 0.6
30 км 1/1 1050 м
[Cu hum]
0.0 -1.1 92 1025.0 1004.7
30 км 4/3 1110 м
[Cu med, cong Ac trans]
-0.8 -1.6 94 1025.2 1004.9
нст 1 19 км {дымка} н/о +0.2 -0.6 94 -2 -2 по сезону 1025.1 1004.9 0.5
Ю 1 13 км в посл. час осадки {ливн. осадки} н/о +0.3 -0.3 96 -2 -2 по сезону 1025.3 1005.1
ЮВ 1 10 км н/о +0.1 -0.5 96 -2 -2 по сезону 1025.0 1004.8
нст 1 5000 м дымка {ливн. осадки, дождь} н/о -1.8 -2.3 96 -4 -4 прохладно 1025.2 1004.8 0.0 0.5
С 1 4500 м дымка н/о -2.5 -2.7 99 -5 -5 холодно 1025.2 1004.7
200 м туман н/о -3.4 -3.6 99 1025.3 1004.8
штиль 0 100 м туман н/о -2.9 -3.0 99 -4 -4 прохладно 1025.1 1004.6 0.5
В 1 4100 м в посл. час туман н/о -2.6 -2.8 99 -5 -5 холодно 1024.8 1004.3
штиль 0 2800 м дымка н/о -2.3 -2.4 99 -4 -4 прохладно 1024.7 1004.3
Ю 1 4000 м дымка 10/10 660 м
[Sc]
-1.8 -2.2 97 -4 -4 прохладно 1024.7 1004.3 -3.5 0.0 0.5
С 1 3000 м дымка 10/10 1350 м
[Sc]
-1.4 -1.7 98 -4 -4 прохладно 1024.6 1004.2
СВ 1 6000 м дымка 9/9 1380 м
[Sc]
-0.8 -1.4 96 -3 -3 прохладно 1024.2 1003.9
нст 1 7000 м дымка 9/9 1380 м
[Sc]
+0.2 -0.3 96 -2 -2 по сезону 1023.8 1003.6 0.4
СВ 2 12 км 8/8 720 м
[Sc]
+1.2 +0.3 94 -2 -2 по сезону 1023.7 1003.6
В 3 13 км 8/8 570 м
[Sc]
+2.5 +0.1 84 -2 -1 по сезону 1022.9 1002.9
В 3 14 км 5/5 700 м
[Sc Ci fib]
+3.1 +0.6 84 -1 -0 по сезону 1022.3 1002.3 0.4
16 км 8/8 900 м
[Sc]
+3.2 +0.6 83 1021.5 1001.5
СВ 3 18 км 10/10 570 м
[Sc]
+2.6 +0.1 84 -2 -2 по сезону 1021.4 1001.4
нст 1 17 км 10/10 1500 м
[Sc]
+1.3 -0.5 88 -1 -1 по сезону 1021.3 1001.2 0.5
В 2 14 км 10/3 930 м
[Sc Ac As]
+0.5 -0.8 91 -3 -3 прохладно 1020.9 1000.8
14 км 10/3 1000 м
[Sc Ac As]
+0.8 -0.7 90 1020.7 1000.6
СВ 3 15 км 10/0
[Ac As]
+0.6 -0.9 90 -4 -4 прохладно 1020.4 1000.3 +3.7 0.5
В 2 20 км 10/0
[Ac As]
+0.7 -1.3 86 -3 -3 прохладно 1020.2 1000.1
СВ 2 25 км 10/10 900 м
[Sc]
+0.9 -1.3 85 -3 -3 прохладно 1019.9 999.8
СВ 2 21 км {дымка} н/о +1.0 -1.4 84 -2 -2 по сезону 1019.6 999.5 0.5
22 км н/о +1.0 -1.5 83 1019.6 999.5
24 км н/о +1.0 -1.6 83 1019.6 999.5
С 1 23 км {дымка} н/о +1.1 -1.7 82 -1 -1 по сезону 1019.2 999.1 0.4
С 1 18 км н/о +0.9 -1.2 86 -1 -1 по сезону 1019.7 999.6
30 км н/о +1.2 -1.8 80 1019.2 999.1
СЗ 1 21 км {дымка} н/о +0.9 -1.4 85 -1 -1 по сезону 1019.2 999.1 0.4
СЗ 2 17 км н/о +0.9 -1.1 86 -3 -3 прохладно 1019.9 999.8
17 км н/о +0.9 -1.5 84 1019.9 999.8
З 1 15 км 10/6 1500 м
[Sc Ac As]
+0.5 -1.6 86 -1 -1 по сезону 1020.1 1000.0 +0.2 0.4
15 км 9/6 1500 м
[Sc Ac As]
+0.5 -1.6 86 1020.8 1000.7
З 1 18 км 9/9 1500 м
[Sc]
+0.9 -1.1 86 -1 -1 по сезону 1021.5 1001.4
З 2 22 км 9/9 1500 м
[Sc]
+2.0 -1.1 80 -1 -1 по сезону 1022.1 1002.0 0.4
З 5 22 км 9/9 1500 м
[Sc]
+3.1 -1.0 74 -2 -2 по сезону 1022.1 1002.1
З 4 18 км 9/9 1500 м
[Sc]
+4.0 -1.3 68 -0 0 по сезону 1022.1 1002.2
З 5 30 км 9/9 1500 м
[Sc]
+4.2 -1.5 66 -0 -0 по сезону 1022.0 1002.1 0.4
З 5 30 км 8/8 1200 м
[Sc]
+4.5 -1.3 66 0 0 по сезону 1021.9 1002.0
З 6 35 км 9/9 1000 м
[Cu Sc]
+4.7 -0.5 69 -0 -0 по сезону 1022.1 1002.2
З 4 35 км 6/6 1110 м
[Sc]
+4.3 -0.6 70 0 0 по сезону 1022.1 1002.2 0.4
З 4 35 км 3/3 1110 м
[Sc]
+3.1 -1.1 74 -1 -1 по сезону 1022.3 1002.3
З 3 35 км 3/1 1110 м
[Cu med, cong Ac trans Ci fib]
+2.4 -1.4 76 -2 -2 по сезону 1022.5 1002.5
ЮЗ 5 30 км слаб. дождь 9/9 1000 м
[Sc]
+3.3 -1.0 73 -2 -2 по сезону 1023.4 1003.4 +5.0 0.0 0.4
З 5 30 км в посл. час дождь 9/9 870 м
[Sc]
+3.9 +0.4 78 -1 -1 по сезону 1023.3 1003.4
З 5 30 км слаб. дождь 9/9 660 м
[Sc]
+3.6 +1.0 83 -1 -1 по сезону 1024.0 1004.0
З 5 24 км слаб. морось {дождь} н/о +4.1 +0.4 77 -1 -1 по сезону 1024.1 1004.2 0.4
З 3
{12}
35 км слаб. ливневой дождь {морось} н/о +2.6 +0.8 88 -2 -2 по сезону 1024.5 1004.4
З 4 10 км слаб. ливневой дождь н/о +2.9 +0.9 87 -2 -2 по сезону 1025.1 1005.1
нст 2
{12}
35 км в посл. час осадки {ливн. осадки} н/о +2.5 +1.0 90 -1 -1 по сезону 1025.4 1005.3 0.8 0.4
З 3 35 км в посл. час дождь {ливн. осадки} н/о +2.5 +0.4 86 -2 -2 по сезону 1025.6 1005.5
СЗ 3 35 км слаб. ливневой дождь н/о +2.2 +0.4 88 -2 -2 по сезону 1025.9 1005.8
СЗ 4 35 км {ливн. осадки, дождь} н/о +2.3 -1.3 77 -2 -2 по сезону 1026.0 1005.9 0.4
СЗ 2 35 км н/о +1.5 -1.6 80 -2 -2 по сезону 1026.8 1006.6
ЮЗ 1 30 км слаб. дождь н/о +0.5 -0.9 90 -2 -2 по сезону 1027.5 1007.2
нст 1 35 км в посл. час дождь 9/9 1200 м
[Cu Sc]
+0.7 -0.9 89 -1 -1 по сезону 1027.9 1007.6 +0.3 1 1.2
ЮВ 2 35 км 5/5 1200 м
[Sc]
-0.1 -1.2 92 -4 -4 прохладно 1028.6 1008.3
Ю 2 30 км 6/6 1500 м
[Sc]
+0.5 -0.6 92 -3 -3 прохладно 1028.9 1008.6
Ю 1 30 км 8/8 900 м
[Sc]
+1.9 -0.3 85 0 0 по сезону 1029.2 1009.0 0.4
Ю 2 25 км 9/9 1500 м
[Sc]
+3.0 0.0 81 0 0 по сезону 1029.3 1009.2
Ю 2 30 км 10/10 1200 м
[Sc]
+3.5 +0.5 81 +1 +1 по сезону 1028.8 1008.7
З 2 35 км 9/9 800 м
[Sc]
+3.8 +1.0 82 +1 +1 по сезону 1028.3 1008.3 0.4
35 км 9/9 1440 м
[Sc]
+3.9 +1.0 81 1027.9 1007.9
ЮВ 1 30 км 8/8 960 м
[Cu med, cong]
+3.9 +1.0 81 +3 +3 по сезону 1027.8 1007.8
СВ 1 22 км 8/8 1300 м
[Sc]
+3.2 +1.2 87 +2 +2 по сезону 1027.9 1007.8 0.4
В 1 15 км 8/8 1260 м
[Sc]
+1.8 +0.9 94 -0 -0 по сезону 1028.0 1007.8
Ю 1 12 км 9/9 1200 м
[Sc]
+1.5 +0.8 95 -1 -1 по сезону 1028.2 1008.0
нст 1 12 км 9/9 1050 м
[Sc]
+1.7 +0.9 94 1028.3 1008.1 +4.6 0.4
15 км 10/10 800 м
[Sc]
+2.2 +1.0 92 1028.3 1008.1
12 км 10/10 800 м
[Sc]
+2.2 +1.2 93 1028.1 1007.9
ЮВ 1 9000 м дымка н/о +2.2 +1.4 94 0 0 по сезону 1028.2 1008.0 0.4
12 км н/о +1.8 +0.8 93 1028.3 1008.1
штиль 0 11 км н/о +1.7 +0.7 93 +1 +1 по сезону 1028.1 1007.9
нст 1 8000 м дымка н/о +1.3 +0.6 95 -1 -1 по сезону 1028.0 1007.8 0.4
5000 м дымка н/о +1.4 +0.8 96 1027.8 1007.6
З 1 900 м туман н/о -0.3 -0.5 99 -3 -3 прохладно 1027.6 1007.3
В 1 2000 м в посл. час туман н/о -0.7 -1.0 98 -3 -3 прохладно 1027.2 1006.8 0.4
штиль 0 3900 м в посл. час туман н/о -1.3 -1.6 98 -3 -3 прохладно 1027.4 1007.0
штиль 0 3900 м дымка н/о -2.1 -2.6 96 -3 -3 прохладно 1027.5 1007.0
З 1 800 м туман ясно -2.3 -2.4 99 -5 -5 холодно 1027.6 1007.1 -2.3 0.4
200 м туман ясно -3.0 -3.2 99 1027.9 1007.4
СВ 1 300 м туман ясно -2.5 -2.6 99 -5 -5 холодно 1028.0 1007.5
нст 1 800 м туман ясно -1.6 -1.8 99 -4 -3 прохладно 1028.1 1007.7 0.4
800 м туман ясно -1.0 -1.2 99 1028.1 1007.7
900 м туман ясно +0.8 +0.6 99 1027.4 1007.2
З 1 7000 м в посл. час туман ясно +2.6 +1.2 90 +1 +3 по сезону 1026.9 1006.8 0.3
12 км ясно +4.2 +1.4 82 1026.1 1006.1
СЗ 2 11 км ясно +3.9 +1.4 84 +1 +1 по сезону 1025.7 1005.7
СЗ 1 8000 м дымка 3/0
[Ci fib]
+2.1 +0.8 91 0 0 по сезону 1025.6 1005.5 0.4
Ю 1 3000 м дымка ясно -0.1 -0.4 98 -2 -2 по сезону 1025.8 1005.5
В 2 9000 м дымка ясно +1.4 -1.4 82 -2 -2 по сезону 1025.7 1005.5
В 3 17 км ясно +0.7 -2.4 80 -4 -4 прохладно 1025.7 1005.5 +4.9 0.4
В 4 20 км ясно +0.7 -2.7 78 -4 -4 прохладно 1025.8 1005.6
ЮВ 2 20 км ясно +0.1 -3.1 79 -3 -3 прохладно 1025.8 1005.5
СВ 1 19 км {дымка} н/о -0.6 -3.4 81 -3 -3 прохладно 1025.7 1005.4 0.4
В 2 19 км н/о -0.9 -3.9 80 -5 -5 холодно 1025.6 1005.3
В 1 17 км н/о -1.0 -3.9 81 -3 -3 прохладно 1025.9 1005.5
нст 1 15 км {дымка} н/о -1.9 -4.3 84 -4 -4 прохладно 1025.5 1005.1 0.3
В 2 15 км н/о -1.7 -4.2 83 -6 -6 холодно 1025.4 1005.0
В 2 10 км н/о -2.2 -4.2 86 -6 -6 холодно 1025.3 1004.9
В 3 9000 м дымка н/о -2.6 -4.4 87 -8 -8 очень
холодно
1025.3 1004.8 0.3
В 3 9000 м дымка н/о -1.6 -3.6 86 -7 -7 холодно 1025.3 1004.9
В 2 9000 м дымка н/о -1.1 -3.2 86 -5 -5 холодно 1025.5 1005.1
нст 1 9000 м дымка 10/10 600 м
[Sc]
-0.9 -3.1 85 -3 -3 прохладно 1025.6 1005.3 -2.9 0.3
ЮВ 2 9000 м дымка 10/10 570 м
[Sc]
-0.9 -2.8 87 -5 -5 холодно 1025.8 1005.5
ЮВ 3 9000 м дымка 10/10 540 м
[Sc]
-0.7 -2.7 86 -6 -6 холодно 1025.9 1005.6
ЮВ 3 9000 м дымка 10/10 500 м
[Sc]
-0.4 -2.5 86 -5 -5 холодно 1025.8 1005.5 0.3
ЮВ 2 9000 м дымка 10/10 500 м
[Sc]
-0.1 -2.8 82 -4 -4 прохладно 1026.0 1005.7
ЮВ 3 15 км 10/10 540 м
[Sc]
0.0 -3.1 80 -5 -5 холодно 1025.4 1005.1
Ю 3 13 км 10/10 540 м
[Sc]
0.0 -3.1 80 -5 -5 холодно 1025.1 1004.8 0.3
Ю 3 11 км 10/10 500 м
[Sc]
0.0 -3.0 80 -5 -5 холодно 1025.0 1004.7
Ю 3 13 км 10/10 570 м
[Sc]
+0.1 -3.3 78 -4 -4 прохладно 1025.2 1004.9
ЮВ 2 13 км 10/10 570 м
[Sc]
-0.1 -3.0 81 -4 -4 прохладно 1024.9 1004.6 0.3
Ю 2 12 км 10/10 570 м
[Sc]
-0.1 -2.8 82 -4 -4 прохладно 1024.7 1004.4
ЮВ 3 12 км 10/10 570 м
[Sc]
0.0 -2.8 81 -5 -5 холодно 1024.7 1004.4
Ю 2 9000 м дымка 10/10 570 м
[Sc]
+0.1 -2.7 81 -3 -3 прохладно 1024.3 1004.1 +0.2 0.3
Ю 2 9000 м дымка 10/10 570 м
[Sc]
0.0 -2.6 83 -4 -4 прохладно 1024.4 1004.1
Ю 1 9000 м дымка 10/10 540 м
[Sc]
-0.1 -2.5 84 -2 -2 по сезону 1024.3 1004.0
Ю 2 8000 м дымка н/о -0.1 -2.5 84 -4 -4 прохладно 1023.6 1003.4 0.3
Ю 2 8000 м дымка н/о +0.1 -3.2 78 -3 -3 прохладно 1023.4 1003.2
Ю 3 7000 м дымка н/о -0.1 -2.8 82 -5 -5 холодно 1022.9 1002.7
Ю 3 6000 м дымка н/о -0.1 -2.5 84 -5 -5 холодно 1022.5 1002.3
ЮВ 3 6000 м дымка н/о -0.2 -2.5 84 -5 -5 холодно 1022.2 1002.0
ЮВ 2 5000 м дымка н/о -0.2 -2.3 86 -4 -4 прохладно 1022.1 1001.9
Местоположение метеостанции Докшаны (Чехия): широта 50.47 долгота 14.17 высота над уровнем моря 159 м.
В архиве по умолчанию представлена погода в Докшанах за последнюю неделю. Архивные данные за месяц целиком и за предыдущие месяцы, начиная с января 2011 года, Вы можете получить, выбрав интересующий диапазон дат из раскрывающегося списка и нажав кнопку "Найти!".
*Определитесь, кто Вы:
Внимание! Время в таблицах - всемирное. Для получения местного времени необходимо прибавить поправку, которая равна 1 ч.
Смотрите также архив погоды в соседних городах и на ближайших метеорологических станциях:
Партнеры нашего сайта:      
Пояснения к столбцам:
  • Ветер - указаны скорость ветра в м/с - средняя за 10 мин, порывы в срок и между сроками (в фигурных скобках) и направление, откуда дует ветер: С - северный,
  • СВ - северо-восточный, В - восточный, ЮВ - юго-восточный, Ю - южный, ЮЗ - юго-западный, З - западный, СЗ - северо-западный.
  • Видимость - горизонтальная дальность видимости в метрах или километрах. При видимости от 1 до 10 км при отсутствии осадков обычно наблюдается дымка, при ухудшении видимости до 1 км и менее - туман. В сухую погоду видимость может ухудшаться дымом, пылью или мглою.
  • Явления - указаны атмосферные явления, наблюдавшиеся в срок или в последний час перед сроком; фигурными скобками обозначены явления, наблюдавшиеся между сроками (за 1-3 часа до срока); квадратными скобками обозначены град или гололедные отложения с указанием их диаметра в мм.
  • Облачность - указаны через наклонную черту общая и нижняя облачность в баллах и высота нижней границы облаков в метрах; квадратными скобками обозначены формы облаков: Ci - перистые, Cs - перисто-слоистые, Cc - перисто-кучевые, Ac - высококучевые, As - высокослоистые, Sc - слоисто-кучевые, Ns - слоисто-дождевые, Cu - кучевые, Cb - кучево-дождевые. Подробнее классификацию облаков см. в Атласе облаков (PDF).
  • T - Температура воздуха - температура, измеренная на высоте 2 м над землей.
  • Td - Температура точки росы - температура, при понижении до которой содержащийся в воздухе водяной пар достигнет насыщения.
  • f - Относительная влажность воздуха - влажноcть воздуха, измеренная на высоте 2 м над землей.
  • Te - Эффективная температура - температура, которую ощущает одетый по сезону человек в тени. Характеристика душности погоды. При расчете учитывается влияние влажности воздуха и скорости ветра на теплоощущения человека.
  • Tes - Эффективная температура на солнце - температура, которую ощущает человек, с поправкой на солнечный нагрев. Характеристика знойности погоды. Зависит от высоты солнца над горизонтом, облачности и скорости ветра. Ночью, в пасмурную погоду, а также при ветре 12 м/с и более поправка равна нулю.
  • P - Атмосферное давление - приведенное к уровню моря атмосферное давление.
  • Po - Атмосферное давление - измеренное на уровне метеостанции атмосферное давление.
  • Tmin - Минимальная температура - минимум температуры воздуха на высоте 2 м над землей.
  • Tmax - Максимальная температура - максимум температуры воздуха на высоте 2 м над землей.
  • R - Количество осадков - Количество выпавших осадков за период времени, мм. При наведении курсора мыши на число - период времени, за который выпало указанное количество осадков.
  • R24 - Количество осадков - Количество выпавших осадков за 24 часа, мм.
  • S - Снежный покров - Высота снежного покрова, см. При наведении курсора мыши на число - состояние снежного покрова и степень покрытия местности в баллах.